Home > Weather > Mexicali > Past weeks

Flag for Mexico Weather for the Past 2 Weeks in Mexicali, Baja California, Mexico

Now
72 °F

Sunny.


Feels Like: 76 °F
Forecast: 50 / 86 °F
Wind: 5 mph from West

Location: Imperial County Airport

Current Time: Feb 13, 2016 at 10:18:42 AM

Latest Report: Feb 13, 2016 at 9:53 AM


Visibility: 10 mi

Pressure: 30.06 "Hg

Humidity: 25%

Dew point: 34 °F

Location of MexicaliLocation

Historic Weather in Mexicali — Graph

°F

Mexicali Temperature Yesterday

Maximum temperature yesterday: 87 °F (at 3:53 PM)
Minimum temperature yesterday: 47 °F (at 6:53 AM)
Average temperature yesterday: 65 °F

High & Low Weather Summary for the Past Weeks

 TemperatureHumidityPressure
High87 °F (Feb 12, 3:53 PM)68% (Jan 31, 5:00 PM)30.42 "Hg (Jan 31, 5:00 PM)
Low33 °F (Feb 3, 6:53 AM)8% (Feb 12, 3:53 PM)29.60 "Hg (Jan 31, 3:53 PM)
Average59 °F33%30.12 "Hg
* Reported Jan 29 8:53 AM — Feb 13 8:53 AM, Mexicali, Weather by CustomWeather, © 2016

Note: Actual official high and low records may vary slightly from our data, if they occured in-between our weather recording intervals... More about our weather records

Advertising

Mexicali Weather History for the Previous 24 Hours

 ConditionsComfort  
Time TempWeatherWind HumidityBarometerVisibility
8:53 AM
Sat, Feb 13
64 °FSunny.No wind28%30.06 "Hg10 mi
7:53 AM54 °FSunny.No wind40%30.05 "Hg10 mi
6:53 AM50 °FSunny.6 mph39%30.04 "Hg10 mi
5:53 AM50 °FClear.6 mph38%30.03 "Hg10 mi
4:53 AM49 °FClear.6 mph39%30.02 "Hg10 mi
3:53 AM48 °FClear.5 mph44%30.01 "Hg10 mi
2:53 AM51 °FClear.6 mph39%30.02 "Hg10 mi
1:53 AM52 °FClear.8 mph40%30.03 "Hg10 mi
12:53 AM51 °FClear.7 mph42%30.03 "Hg10 mi
11:53 PM
Fri, Feb 12
54 °FClear.6 mph38%30.03 "Hg10 mi
10:53 PM56 °FClear.5 mph32%30.04 "Hg10 mi
9:53 PM60 °FClear.3 mph36%30.03 "Hg10 mi
8:53 PM57 °FClear.5 mph44%30.03 "Hg10 mi
7:53 PM65 °FClear.No wind32%30.02 "Hg10 mi
6:53 PM70 °FClear.No wind25%30.01 "Hg10 mi
5:53 PM72 °FClear.3 mph29%30.01 "Hg10 mi
4:53 PM84 °FSunny.No wind13%30.00 "Hg10 mi
3:53 PM87 °FSunny.3 mph8%30.00 "Hg10 mi
2:53 PM85 °FSunny.No wind12%30.01 "Hg10 mi
1:53 PM84 °FSunny.5 mph12%30.03 "Hg10 mi
12:53 PM84 °FSunny.6 mph11%30.06 "Hg10 mi
11:53 AM80 °FSunny.3 mph15%30.09 "Hg10 mi
10:53 AM77 °FSunny.6 mph17%30.12 "Hg10 mi
Weather by CustomWeather, © 2016

See weather overviewHow to use our weather pages